Wetterdaten: Mittwoch, 03.02.2016
Datum Zeit Temp. Auen Feucht Auen Luftdruck Regen Richtung Richtung Windben
03.02.2016 00:00 7,1 C 82 % 1019,6 hPa 0,0 mm W-NW 290 3,2 km/h (1 Bft)
03.02.2016 00:05 7,1 C 82 % 1019,6 hPa 0,0 mm W-SW 248 4,8 km/h (1 Bft)
03.02.2016 00:10 7,0 C 82 % 1019,6 hPa 0,0 mm W-SW 248 3,2 km/h (1 Bft)
03.02.2016 00:15 7,1 C 82 % 1019,4 hPa 0,0 mm W-NW 301 4,8 km/h (1 Bft)
03.02.2016 00:20 6,8 C 82 % 1019,4 hPa 0,0 mm W 264 6,4 km/h (2 Bft)
03.02.2016 00:25 6,7 C 82 % 1019,4 hPa 0,0 mm W 265 3,2 km/h (1 Bft)
03.02.2016 00:30 6,6 C 82 % 1019,3 hPa 0,0 mm W 264 0,0 km/h (0 Bft)
03.02.2016 00:35 6,2 C 82 % 1019,3 hPa 0,0 mm W 264 3,2 km/h (1 Bft)
03.02.2016 00:40 6,1 C 83 % 1019,4 hPa 0,0 mm W 264 3,2 km/h (1 Bft)
03.02.2016 00:45 5,8 C 83 % 1019,5 hPa 0,0 mm W 264 3,2 km/h (1 Bft)
03.02.2016 00:50 5,6 C 84 % 1019,4 hPa 0,0 mm W 264 1,6 km/h (1 Bft)
03.02.2016 00:55 5,5 C 84 % 1019,4 hPa 0,0 mm W 265 3,2 km/h (1 Bft)
03.02.2016 01:00 5,3 C 84 % 1019,3 hPa 0,0 mm W 264 0,0 km/h (0 Bft)
03.02.2016 01:05 5,3 C 85 % 1019,4 hPa 0,0 mm W 264 1,6 km/h (1 Bft)
03.02.2016 01:10 5,2 C 85 % 1019,4 hPa 0,0 mm W 264 3,2 km/h (1 Bft)
03.02.2016 01:15 5,1 C 85 % 1019,4 hPa 0,0 mm W 265 4,8 km/h (1 Bft)
03.02.2016 01:20 5,0 C 86 % 1019,3 hPa 0,0 mm W 275 4,8 km/h (1 Bft)
03.02.2016 01:25 5,0 C 86 % 1019,2 hPa 0,0 mm W 275 3,2 km/h (1 Bft)
03.02.2016 01:30 5,0 C 86 % 1019,1 hPa 0,0 mm W 275 1,6 km/h (1 Bft)
03.02.2016 01:35 5,0 C 86 % 1019,1 hPa 0,0 mm W 275 0,0 km/h (0 Bft)
03.02.2016 01:40 5,0 C 86 % 1019,2 hPa 0,0 mm W 275 1,6 km/h (1 Bft)
03.02.2016 01:45 4,9 C 85 % 1019,1 hPa 0,0 mm W 275 0,0 km/h (0 Bft)
03.02.2016 01:50 4,9 C 85 % 1019,1 hPa 0,0 mm W 275 3,2 km/h (1 Bft)
03.02.2016 01:55 4,9 C 85 % 1019,3 hPa 0,0 mm W 259 4,8 km/h (1 Bft)
03.02.2016 02:00 4,9 C 85 % 1019,4 hPa 0,0 mm W-SW 248 3,2 km/h (1 Bft)
03.02.2016 02:05 4,9 C 86 % 1019,4 hPa 0,0 mm W-SW 248 1,6 km/h (1 Bft)
03.02.2016 02:10 5,0 C 86 % 1019,3 hPa 0,0 mm W-SW 248 0,0 km/h (0 Bft)
03.02.2016 02:15 5,1 C 86 % 1019,3 hPa 0,0 mm W-SW 248 1,6 km/h (1 Bft)
03.02.2016 02:20 5,1 C 86 % 1019,3 hPa 0,0 mm W-SW 248 3,2 km/h (1 Bft)
03.02.2016 02:25 5,2 C 86 % 1019,4 hPa 0,0 mm W-SW 248 0,0 km/h (0 Bft)
03.02.2016 02:30 5,2 C 85 % 1019,4 hPa 0,0 mm W-SW 248 1,6 km/h (1 Bft)
03.02.2016 02:35 5,2 C 85 % 1019,4 hPa 0,0 mm W-SW 248 1,6 km/h (1 Bft)
03.02.2016 02:40 5,2 C 85 % 1019,4 hPa 0,0 mm W-SW 248 1,6 km/h (1 Bft)
03.02.2016 02:45 5,2 C 85 % 1019,3 hPa 0,0 mm W-SW 248 0,0 km/h (0 Bft)
03.02.2016 02:50 5,2 C 85 % 1019,3 hPa 0,0 mm W-SW 248 0,0 km/h (0 Bft)
03.02.2016 02:55 5,3 C 85 % 1019,3 hPa 0,0 mm W-SW 248 1,6 km/h (1 Bft)
03.02.2016 03:00 5,3 C 85 % 1019,3 hPa 0,0 mm W-SW 248 0,0 km/h (0 Bft)
03.02.2016 03:05 5,3 C 86 % 1019,2 hPa 0,0 mm W-SW 248 1,6 km/h (1 Bft)
03.02.2016 03:10 5,3 C 86 % 1019,1 hPa 0,0 mm W-SW 248 1,6 km/h (1 Bft)
03.02.2016 03:15 5,3 C 86 % 1019,1 hPa 0,0 mm W-SW 248 0,0 km/h (0 Bft)
03.02.2016 03:20 5,3 C 86 % 1019,0 hPa 0,0 mm W-SW 248 3,2 km/h (1 Bft)
03.02.2016 03:25 5,3 C 86 % 1019,0 hPa 0,0 mm W-SW 248 1,6 km/h (1 Bft)
03.02.2016 03:30 5,3 C 86 % 1019,1 hPa 0,0 mm W-SW 248 3,2 km/h (1 Bft)
03.02.2016 03:35 5,4 C 86 % 1019,1 hPa 0,0 mm W-SW 248 3,2 km/h (1 Bft)
03.02.2016 03:40 5,4 C 86 % 1019,0 hPa 0,0 mm W-SW 248 0,0 km/h (0 Bft)
03.02.2016 03:45 5,4 C 87 % 1018,9 hPa 0,0 mm W-SW 248 1,6 km/h (1 Bft)
03.02.2016 03:50 5,4 C 87 % 1018,9 hPa 0,0 mm W-SW 248 4,8 km/h (1 Bft)
03.02.2016 03:55 5,5 C 87 % 1018,9 hPa 0,0 mm W-SW 248 3,2 km/h (1 Bft)
03.02.2016 04:00 5,5 C 87 % 1018,9 hPa 0,0 mm W-SW 248 1,6 km/h (1 Bft)
03.02.2016 04:05 5,5 C 87 % 1018,9 hPa 0,0 mm W-SW 248 1,6 km/h (1 Bft)
03.02.2016 04:10 5,6 C 87 % 1018,6 hPa 0,0 mm W 260 11,3 km/h (2 Bft)
03.02.2016 04:15 5,9 C 87 % 1018,6 hPa 0,0 mm W-NW 282 17,7 km/h (3 Bft)
03.02.2016 04:20 6,4 C 85 % 1018,5 hPa 0,0 mm W 267 14,5 km/h (3 Bft)
03.02.2016 04:25 6,9 C 84 % 1018,5 hPa 0,0 mm W 261 12,9 km/h (3 Bft)
03.02.2016 04:30 7,2 C 83 % 1018,4 hPa 0,0 mm W 281 11,3 km/h (2 Bft)
03.02.2016 04:35 7,4 C 81 % 1018,4 hPa 0,0 mm W-SW 252 12,9 km/h (3 Bft)
03.02.2016 04:40 7,6 C 80 % 1018,4 hPa 0,0 mm W-SW 257 9,7 km/h (2 Bft)
03.02.2016 04:45 7,7 C 79 % 1018,4 hPa 0,0 mm W 265 14,5 km/h (3 Bft)
03.02.2016 04:50 7,8 C 79 % 1018,3 hPa 0,0 mm W 278 9,7 km/h (2 Bft)
03.02.2016 04:55 7,9 C 78 % 1018,2 hPa 0,0 mm W 267 6,4 km/h (2 Bft)
03.02.2016 05:00 7,9 C 78 % 1018,4 hPa 0,0 mm W 269 8,0 km/h (2 Bft)
03.02.2016 05:05 7,9 C 78 % 1018,3 hPa 0,0 mm W 269 3,2 km/h (1 Bft)
03.02.2016 05:10 7,9 C 78 % 1018,2 hPa 0,0 mm W 269 4,8 km/h (1 Bft)
03.02.2016 05:15 7,9 C 78 % 1018,3 hPa 0,0 mm W-NW 282 3,2 km/h (1 Bft)
03.02.2016 05:20 7,9 C 78 % 1018,5 hPa 0,0 mm W-NW 282 3,2 km/h (1 Bft)
03.02.2016 05:25 7,9 C 79 % 1018,4 hPa 0,0 mm W 263 8,0 km/h (2 Bft)
03.02.2016 05:30 7,9 C 79 % 1018,5 hPa 0,0 mm W 272 12,9 km/h (3 Bft)
03.02.2016 05:35 7,9 C 79 % 1018,5 hPa 0,0 mm W 267 12,9 km/h (3 Bft)
03.02.2016 05:40 7,8 C 79 % 1018,4 hPa 0,0 mm W 269 12,9 km/h (3 Bft)
03.02.2016 05:45 7,8 C 80 % 1018,4 hPa 0,0 mm W 269 14,5 km/h (3 Bft)
03.02.2016 05:50 7,7 C 80 % 1018,4 hPa 0,0 mm W 267 11,3 km/h (2 Bft)
03.02.2016 05:55 7,6 C 81 % 1018,3 hPa 0,0 mm W 265 12,9 km/h (3 Bft)
03.02.2016 06:00 7,5 C 82 % 1018,5 hPa 0,0 mm W-SW 250 12,9 km/h (3 Bft)
03.02.2016 06:05 7,4 C 82 % 1018,4 hPa 0,0 mm W 271 8,0 km/h (2 Bft)
03.02.2016 06:10 7,4 C 83 % 1018,4 hPa 0,0 mm W 281 8,0 km/h (2 Bft)
03.02.2016 06:15 7,3 C 84 % 1018,4 hPa 0,0 mm W 259 6,4 km/h (2 Bft)
03.02.2016 06:20 7,2 C 85 % 1018,4 hPa 0,0 mm W-NW 287 8,0 km/h (2 Bft)
03.02.2016 06:25 7,1 C 85 % 1018,5 hPa 0,0 mm W 269 8,0 km/h (2 Bft)
03.02.2016 06:30 7,1 C 86 % 1018,4 hPa 0,0 mm W 262 4,8 km/h (1 Bft)
03.02.2016 06:35 6,9 C 86 % 1018,5 hPa 0,0 mm W 262 9,7 km/h (2 Bft)
03.02.2016 06:40 6,8 C 86 % 1018,5 hPa 0,0 mm W 259 11,3 km/h (2 Bft)
03.02.2016 06:45 6,6 C 86 % 1018,7 hPa 0,0 mm W 262 12,9 km/h (3 Bft)
03.02.2016 06:50 6,5 C 87 % 1018,5 hPa 0,0 mm W 275 11,3 km/h (2 Bft)
03.02.2016 06:55 6,3 C 87 % 1018,5 hPa 0,0 mm W 266 8,0 km/h (2 Bft)
03.02.2016 07:00 6,2 C 87 % 1018,4 hPa 0,0 mm W 262 9,7 km/h (2 Bft)
03.02.2016 07:05 6,1 C 87 % 1018,3 hPa 0,0 mm W 264 12,9 km/h (3 Bft)
03.02.2016 07:10 6,0 C 87 % 1018,3 hPa 0,0 mm W 271 11,3 km/h (2 Bft)
03.02.2016 07:15 5,9 C 87 % 1018,4 hPa 0,0 mm W-SW 240 12,9 km/h (3 Bft)
03.02.2016 07:20 5,8 C 87 % 1018,4 hPa 0,0 mm W 263 11,3 km/h (2 Bft)
03.02.2016 07:25 5,7 C 87 % 1018,3 hPa 0,0 mm W 265 11,3 km/h (2 Bft)
03.02.2016 07:30 5,6 C 86 % 1018,3 hPa 0,0 mm W 266 9,7 km/h (2 Bft)
03.02.2016 07:35 5,5 C 86 % 1018,2 hPa 0,0 mm W-SW 258 6,4 km/h (2 Bft)
03.02.2016 07:40 5,4 C 85 % 1018,2 hPa 0,0 mm W-NW 290 3,2 km/h (1 Bft)
03.02.2016 07:45 5,4 C 85 % 1018,0 hPa 0,0 mm W-NW 288 4,8 km/h (1 Bft)
03.02.2016 07:50 5,3 C 85 % 1017,8 hPa 0,0 mm W-NW 289 3,2 km/h (1 Bft)
03.02.2016 07:55 5,3 C 85 % 1017,8 hPa 0,0 mm W-NW 289 1,6 km/h (1 Bft)
03.02.2016 08:00 5,3 C 85 % 1017,7 hPa 0,0 mm W-NW 289 0,0 km/h (0 Bft)
03.02.2016 08:05 5,3 C 85 % 1017,7 hPa 0,0 mm W-NW 289 0,0 km/h (0 Bft)
03.02.2016 08:10 5,3 C 85 % 1017,6 hPa 0,0 mm W-NW 288 0,0 km/h (0 Bft)
03.02.2016 08:15 5,2 C 85 % 1017,6 hPa 0,0 mm W-NW 288 0,0 km/h (0 Bft)
03.02.2016 08:20 5,2 C 85 % 1017,8 hPa 0,0 mm W-NW 288 1,6 km/h (1 Bft)
03.02.2016 08:25 5,2 C 86 % 1017,7 hPa 0,0 mm W 261 6,4 km/h (2 Bft)
03.02.2016 08:30 5,2 C 86 % 1017,6 hPa 0,0 mm W 275 8,0 km/h (2 Bft)
03.02.2016 08:35 5,2 C 86 % 1017,6 hPa 0,0 mm W 275 4,8 km/h (1 Bft)
03.02.2016 08:40 5,2 C 86 % 1017,6 hPa 0,0 mm W 267 6,4 km/h (2 Bft)
03.02.2016 08:45 5,2 C 86 % 1017,5 hPa 0,0 mm W 267 4,8 km/h (1 Bft)
03.02.2016 08:50 5,2 C 86 % 1017,5 hPa 0,0 mm W 267 3,2 km/h (1 Bft)
03.02.2016 08:55 5,2 C 86 % 1017,5 hPa 0,0 mm W 267 3,2 km/h (1 Bft)
03.02.2016 09:00 5,2 C 86 % 1017,5 hPa 0,0 mm W 267 3,2 km/h (1 Bft)
03.02.2016 09:05 5,2 C 87 % 1017,6 hPa 0,0 mm W 267 3,2 km/h (1 Bft)
03.02.2016 09:10 5,2 C 87 % 1017,5 hPa 0,0 mm W 267 3,2 km/h (1 Bft)
03.02.2016 09:15 5,1 C 87 % 1017,6 hPa 0,0 mm W 267 3,2 km/h (1 Bft)
03.02.2016 09:20 5,1 C 87 % 1017,6 hPa 0,0 mm W 267 3,2 km/h (1 Bft)
03.02.2016 09:25 5,1 C 87 % 1017,7 hPa 0,0 mm W 267 3,2 km/h (1 Bft)
03.02.2016 09:30 5,1 C 87 % 1017,8 hPa 0,0 mm W-SW 257 8,0 km/h (2 Bft)
03.02.2016 09:35 5,0 C 87 % 1017,8 hPa 0,0 mm W 280 4,8 km/h (1 Bft)
03.02.2016 09:40 4,9 C 87 % 1017,9 hPa 0,0 mm W 278 8,0 km/h (2 Bft)
03.02.2016 09:45 4,9 C 87 % 1017,9 hPa 0,0 mm W 279 8,0 km/h (2 Bft)
03.02.2016 09:50 4,9 C 87 % 1017,9 hPa 0,0 mm W 277 6,4 km/h (2 Bft)
03.02.2016 09:55 4,9 C 87 % 1017,9 hPa 0,0 mm W 271 9,7 km/h (2 Bft)
03.02.2016 10:00 4,8 C 88 % 1018,0 hPa 0,0 mm W 277 8,0 km/h (2 Bft)
03.02.2016 10:05 4,8 C 88 % 1018,2 hPa 0,0 mm W 264 6,4 km/h (2 Bft)
03.02.2016 10:10 4,7 C 88 % 1018,2 hPa 0,0 mm W 270 12,9 km/h (3 Bft)
03.02.2016 10:15 4,6 C 88 % 1018,3 hPa 0,0 mm W-SW 243 14,5 km/h (3 Bft)
03.02.2016 10:20 4,4 C 88 % 1018,3 hPa 0,0 mm W 269 9,7 km/h (2 Bft)
03.02.2016 10:25 4,3 C 88 % 1018,3 hPa 0,2 mm W-SW 257 8,0 km/h (2 Bft)
03.02.2016 10:30 4,2 C 88 % 1018,4 hPa 0,0 mm W 263 8,0 km/h (2 Bft)
03.02.2016 10:35 4,2 C 88 % 1018,4 hPa 0,0 mm W 263 4,8 km/h (1 Bft)
03.02.2016 10:40 4,1 C 89 % 1018,4 hPa 0,0 mm W-NW 288 8,0 km/h (2 Bft)
03.02.2016 10:45 4,1 C 89 % 1018,5 hPa 0,0 mm W 267 4,8 km/h (1 Bft)
03.02.2016 10:50 4,1 C 89 % 1018,5 hPa 0,2 mm W-SW 255 8,0 km/h (2 Bft)
03.02.2016 10:55 3,9 C 89 % 1018,6 hPa 0,0 mm W 262 9,7 km/h (2 Bft)
03.02.2016 11:00 3,9 C 89 % 1018,6 hPa 0,2 mm W 266 6,4 km/h (2 Bft)
03.02.2016 11:05 3,8 C 89 % 1018,7 hPa 0,0 mm W 259 8,0 km/h (2 Bft)
03.02.2016 11:10 3,7 C 89 % 1018,7 hPa 0,0 mm W-NW 285 8,0 km/h (2 Bft)
03.02.2016 11:15 3,6 C 89 % 1018,7 hPa 0,2 mm W-SW 250 6,4 km/h (2 Bft)
03.02.2016 11:20 3,6 C 89 % 1018,8 hPa 0,0 mm W 259 4,8 km/h (1 Bft)
03.02.2016 11:25 3,4 C 89 % 1018,8 hPa 0,2 mm W-NW 295 9,7 km/h (2 Bft)
03.02.2016 11:30 3,4 C 89 % 1018,8 hPa 0,2 mm W-NW 295 3,2 km/h (1 Bft)
03.02.2016 11:35 3,3 C 89 % 1018,8 hPa 0,0 mm W 281 6,4 km/h (2 Bft)
03.02.2016 11:40 3,3 C 89 % 1018,8 hPa 0,2 mm W-SW 255 4,8 km/h (1 Bft)
03.02.2016 11:45 3,2 C 89 % 1018,7 hPa 0,0 mm W-SW 255 4,8 km/h (1 Bft)
03.02.2016 11:50 3,1 C 89 % 1018,6 hPa 0,0 mm W 264 8,0 km/h (2 Bft)
03.02.2016 11:55 3,1 C 89 % 1018,6 hPa 0,0 mm W 261 4,8 km/h (1 Bft)
03.02.2016 12:00 3,1 C 89 % 1018,6 hPa 0,2 mm W 262 6,4 km/h (2 Bft)
03.02.2016 12:05 3,0 C 89 % 1018,6 hPa 0,2 mm W 264 6,4 km/h (2 Bft)
03.02.2016 12:10 3,0 C 89 % 1018,6 hPa 0,0 mm W 265 6,4 km/h (2 Bft)
03.02.2016 12:15 3,0 C 89 % 1018,6 hPa 0,0 mm W 266 8,0 km/h (2 Bft)
03.02.2016 12:20 2,9 C 89 % 1018,6 hPa 0,2 mm W 261 6,4 km/h (2 Bft)
03.02.2016 12:25 2,9 C 89 % 1018,5 hPa 0,2 mm W 265 4,8 km/h (1 Bft)
03.02.2016 12:30 2,8 C 89 % 1018,5 hPa 0,0 mm W 272 6,4 km/h (2 Bft)
03.02.2016 12:35 2,8 C 88 % 1018,6 hPa 0,2 mm W 271 4,8 km/h (1 Bft)
03.02.2016 12:40 2,7 C 89 % 1018,4 hPa 0,0 mm W-SW 248 6,4 km/h (2 Bft)
03.02.2016 12:45 2,6 C 89 % 1018,2 hPa 0,2 mm W 262 6,4 km/h (2 Bft)
03.02.2016 12:50 2,5 C 89 % 1018,3 hPa 0,0 mm W 261 6,4 km/h (2 Bft)
03.02.2016 12:55 2,4 C 88 % 1018,2 hPa 0,0 mm W 269 6,4 km/h (2 Bft)
03.02.2016 13:00 2,4 C 88 % 1018,2 hPa 0,2 mm W 262 6,4 km/h (2 Bft)
03.02.2016 13:05 2,4 C 88 % 1018,2 hPa 0,2 mm W 262 4,8 km/h (1 Bft)
03.02.2016 13:10 2,4 C 89 % 1018,2 hPa 0,0 mm W 265 4,8 km/h (1 Bft)
03.02.2016 13:15 2,4 C 88 % 1018,2 hPa 0,0 mm W 265 3,2 km/h (1 Bft)
03.02.2016 13:20 2,4 C 88 % 1018,3 hPa 0,2 mm W 265 3,2 km/h (1 Bft)
03.02.2016 13:25 2,4 C 88 % 1018,2 hPa 0,2 mm W 265 4,8 km/h (1 Bft)
03.02.2016 13:30 2,4 C 88 % 1018,1 hPa 0,0 mm W 265 3,2 km/h (1 Bft)
03.02.2016 13:35 2,4 C 88 % 1018,2 hPa 0,2 mm W-SW 252 4,8 km/h (1 Bft)
03.02.2016 13:40 2,4 C 88 % 1018,1 hPa 0,2 mm W 265 8,0 km/h (2 Bft)
03.02.2016 13:45 2,4 C 88 % 1018,3 hPa 0,0 mm W 264 8,0 km/h (2 Bft)
03.02.2016 13:50 2,3 C 88 % 1018,2 hPa 0,0 mm W 265 8,0 km/h (2 Bft)
03.02.2016 13:55 2,3 C 88 % 1018,1 hPa 0,2 mm W-SW 252 6,4 km/h (2 Bft)
03.02.2016 14:00 2,3 C 88 % 1018,2 hPa 0,0 mm W 281 3,2 km/h (1 Bft)
03.02.2016 14:05 2,2 C 88 % 1018,1 hPa 0,2 mm W 271 4,8 km/h (1 Bft)
03.02.2016 14:10 2,2 C 88 % 1018,1 hPa 0,0 mm W 269 6,4 km/h (2 Bft)
03.02.2016 14:15 2,1 C 88 % 1018,2 hPa 0,0 mm W 265 4,8 km/h (1 Bft)
03.02.2016 14:20 2,0 C 88 % 1018,3 hPa 0,2 mm W 262 4,8 km/h (1 Bft)
03.02.2016 14:25 1,9 C 88 % 1018,3 hPa 0,0 mm W-SW 257 4,8 km/h (1 Bft)
03.02.2016 14:30 1,9 C 88 % 1018,3 hPa 0,0 mm W-SW 250 4,8 km/h (1 Bft)
03.02.2016 14:35 1,8 C 88 % 1018,3 hPa 0,2 mm W-SW 250 3,2 km/h (1 Bft)
03.02.2016 14:40 1,8 C 88 % 1018,4 hPa 0,0 mm W-SW 250 3,2 km/h (1 Bft)
03.02.2016 14:45 1,8 C 88 % 1018,3 hPa 0,0 mm W-SW 250 4,8 km/h (1 Bft)
03.02.2016 14:50 1,8 C 88 % 1018,4 hPa 0,2 mm W-SW 250 3,2 km/h (1 Bft)
03.02.2016 14:55 1,8 C 88 % 1018,4 hPa 0,0 mm W-SW 250 1,6 km/h (1 Bft)
03.02.2016 15:00 1,7 C 88 % 1018,3 hPa 0,2 mm W-SW 250 1,6 km/h (1 Bft)
03.02.2016 15:05 1,7 C 88 % 1018,4 hPa 0,0 mm W-SW 250 1,6 km/h (1 Bft)
03.02.2016 15:10 1,7 C 88 % 1018,3 hPa 0,0 mm W-SW 250 1,6 km/h (1 Bft)
03.02.2016 15:15 1,6 C 88 % 1018,4 hPa 0,0 mm W-SW 250 1,6 km/h (1 Bft)
03.02.2016 15:20 1,6 C 88 % 1018,4 hPa 0,0 mm W-SW 250 0,0 km/h (0 Bft)
03.02.2016 15:25 1,6 C 88 % 1018,5 hPa 0,0 mm W-SW 250 1,6 km/h (1 Bft)
03.02.2016 15:30 1,6 C 88 % 1018,5 hPa 0,2 mm W-SW 250 1,6 km/h (1 Bft)
03.02.2016 15:35 1,6 C 88 % 1018,5 hPa 0,0 mm W-SW 250 3,2 km/h (1 Bft)
03.02.2016 15:40 1,6 C 88 % 1018,5 hPa 0,0 mm W-SW 250 0,0 km/h (0 Bft)
03.02.2016 15:45 1,6 C 88 % 1018,4 hPa 0,0 mm W-SW 250 0,0 km/h (0 Bft)
03.02.2016 15:50 1,7 C 88 % 1018,5 hPa 0,0 mm W-SW 251 4,8 km/h (1 Bft)
03.02.2016 15:55 1,8 C 88 % 1018,4 hPa 0,2 mm W 267 4,8 km/h (1 Bft)
03.02.2016 16:00 1,8 C 88 % 1018,4 hPa 0,0 mm W 271 3,2 km/h (1 Bft)
03.02.2016 16:05 1,8 C 88 % 1018,4 hPa 0,0 mm W 271 3,2 km/h (1 Bft)
03.02.2016 16:10 1,9 C 88 % 1018,4 hPa 0,0 mm W-SW 250 8,0 km/h (2 Bft)
03.02.2016 16:15 1,9 C 88 % 1018,4 hPa 0,0 mm W 279 4,8 km/h (1 Bft)
03.02.2016 16:20 1,9 C 88 % 1018,4 hPa 0,2 mm W 278 3,2 km/h (1 Bft)
03.02.2016 16:25 1,9 C 88 % 1018,4 hPa 0,0 mm W-SW 257 6,4 km/h (2 Bft)
03.02.2016 16:30 1,9 C 88 % 1018,5 hPa 0,0 mm W 279 6,4 km/h (2 Bft)
03.02.2016 16:35 1,9 C 88 % 1018,4 hPa 0,2 mm W 273 6,4 km/h (2 Bft)
03.02.2016 16:40 1,9 C 88 % 1018,4 hPa 0,0 mm W 273 4,8 km/h (1 Bft)
03.02.2016 16:45 1,9 C 88 % 1018,4 hPa 0,0 mm W 273 3,2 km/h (1 Bft)
03.02.2016 16:50 1,9 C 88 % 1018,4 hPa 0,0 mm W 273 4,8 km/h (1 Bft)
03.02.2016 16:55 1,9 C 88 % 1018,3 hPa 0,2 mm W 267 6,4 km/h (2 Bft)
03.02.2016 17:00 1,9 C 88 % 1018,2 hPa 0,0 mm W 267 4,8 km/h (1 Bft)
03.02.2016 17:05 1,9 C 88 % 1018,2 hPa 0,0 mm W 267 3,2 km/h (1 Bft)
03.02.2016 17:10 1,9 C 88 % 1018,2 hPa 0,2 mm W 267 1,6 km/h (1 Bft)
03.02.2016 17:15 1,8 C 88 % 1018,4 hPa 0,0 mm W 267 3,2 km/h (1 Bft)
03.02.2016 17:20 1,8 C 88 % 1018,4 hPa 0,0 mm W 267 1,6 km/h (1 Bft)
03.02.2016 17:25 1,8 C 88 % 1018,4 hPa 0,0 mm W 267 0,0 km/h (0 Bft)
03.02.2016 17:30 1,8 C 87 % 1018,5 hPa 0,2 mm W 267 1,6 km/h (1 Bft)
03.02.2016 17:35 1,8 C 87 % 1018,4 hPa 0,0 mm W 274 4,8 km/h (1 Bft)
03.02.2016 17:40 1,8 C 87 % 1018,4 hPa 0,0 mm W 274 3,2 km/h (1 Bft)
03.02.2016 17:45 1,8 C 87 % 1018,4 hPa 0,0 mm W 274 1,6 km/h (1 Bft)
03.02.2016 17:50 1,8 C 87 % 1018,5 hPa 0,2 mm W 274 3,2 km/h (1 Bft)
03.02.2016 17:55 1,8 C 87 % 1018,5 hPa 0,0 mm W 274 1,6 km/h (1 Bft)
03.02.2016 18:00 1,9 C 87 % 1018,7 hPa 0,0 mm W 274 3,2 km/h (1 Bft)
03.02.2016 18:05 1,9 C 87 % 1018,8 hPa 0,0 mm W 274 4,8 km/h (1 Bft)
03.02.2016 18:10 2,0 C 87 % 1018,8 hPa 0,0 mm W 274 3,2 km/h (1 Bft)
03.02.2016 18:15 2,1 C 87 % 1019,0 hPa 0,0 mm W 274 4,8 km/h (1 Bft)
03.02.2016 18:20 2,1 C 87 % 1019,1 hPa 0,0 mm W 267 4,8 km/h (1 Bft)
03.02.2016 18:25 2,2 C 87 % 1019,1 hPa 0,0 mm W 269 3,2 km/h (1 Bft)
03.02.2016 18:30 2,2 C 87 % 1019,1 hPa 0,0 mm W-SW 244 6,4 km/h (2 Bft)
03.02.2016 18:35 2,2 C 87 % 1019,2 hPa 0,0 mm W-SW 246 4,8 km/h (1 Bft)
03.02.2016 18:40 2,3 C 87 % 1019,3 hPa 0,2 mm W-SW 248 6,4 km/h (2 Bft)
03.02.2016 18:45 2,3 C 87 % 1019,1 hPa 0,0 mm W 261 4,8 km/h (1 Bft)
03.02.2016 18:50 2,3 C 87 % 1019,2 hPa 0,0 mm W 259 4,8 km/h (1 Bft)
03.02.2016 18:55 2,3 C 87 % 1019,2 hPa 0,2 mm W 265 4,8 km/h (1 Bft)
03.02.2016 19:00 2,4 C 87 % 1019,3 hPa 0,0 mm W 271 9,7 km/h (2 Bft)
03.02.2016 19:05 2,4 C 87 % 1019,3 hPa 0,0 mm W 262 8,0 km/h (2 Bft)
03.02.2016 19:10 2,4 C 87 % 1019,4 hPa 0,2 mm W 263 17,7 km/h (3 Bft)
03.02.2016 19:15 2,4 C 87 % 1019,5 hPa 0,0 mm W-SW 254 11,3 km/h (2 Bft)
03.02.2016 19:20 2,4 C 87 % 1019,5 hPa 0,2 mm W 259 12,9 km/h (3 Bft)
03.02.2016 19:25 2,4 C 87 % 1019,6 hPa 0,0 mm W-SW 251 12,9 km/h (3 Bft)
03.02.2016 19:30 2,3 C 87 % 1019,6 hPa 0,4 mm W 260 14,5 km/h (3 Bft)
03.02.2016 19:35 2,2 C 87 % 1019,9 hPa 0,2 mm W-SW 250 12,9 km/h (3 Bft)
03.02.2016 19:40 2,1 C 87 % 1020,1 hPa 0,2 mm W-SW 254 8,0 km/h (2 Bft)
03.02.2016 19:45 2,0 C 87 % 1020,2 hPa 0,2 mm W 277 11,3 km/h (2 Bft)
03.02.2016 19:50 1,8 C 87 % 1020,2 hPa 0,2 mm W-SW 251 11,3 km/h (2 Bft)
03.02.2016 19:55 1,7 C 87 % 1020,3 hPa 0,4 mm W 280 11,3 km/h (2 Bft)
03.02.2016 20:00 1,6 C 87 % 1020,4 hPa 0,2 mm W 261 11,3 km/h (2 Bft)
03.02.2016 20:05 1,4 C 87 % 1020,5 hPa 0,0 mm W 266 12,9 km/h (3 Bft)
03.02.2016 20:10 1,4 C 87 % 1020,5 hPa 0,2 mm W 267 9,7 km/h (2 Bft)
03.02.2016 20:15 1,3 C 87 % 1020,7 hPa 0,2 mm W-SW 258 9,7 km/h (2 Bft)
03.02.2016 20:20 1,3 C 87 % 1020,7 hPa 0,2 mm W 261 8,0 km/h (2 Bft)
03.02.2016 20:25 1,3 C 87 % 1020,9 hPa 0,0 mm W-NW 296 17,7 km/h (3 Bft)
03.02.2016 20:30 1,3 C 87 % 1021,0 hPa 0,2 mm W 272 17,7 km/h (3 Bft)
03.02.2016 20:35 1,3 C 87 % 1021,3 hPa 0,0 mm W 280 19,3 km/h (3 Bft)
03.02.2016 20:40 1,3 C 87 % 1021,3 hPa 0,0 mm W 267 16,1 km/h (3 Bft)
03.02.2016 20:45 1,4 C 87 % 1021,4 hPa 0,2 mm W 269 16,1 km/h (3 Bft)
03.02.2016 20:50 1,4 C 87 % 1021,4 hPa 0,0 mm W 262 12,9 km/h (3 Bft)
03.02.2016 20:55 1,4 C 87 % 1021,6 hPa 0,0 mm NW 309 14,5 km/h (3 Bft)
03.02.2016 21:00 1,4 C 87 % 1021,8 hPa 0,2 mm W 275 19,3 km/h (3 Bft)
03.02.2016 21:05 1,3 C 87 % 1021,9 hPa 0,2 mm W 264 16,1 km/h (3 Bft)
03.02.2016 21:10 1,3 C 87 % 1022,0 hPa 0,0 mm W 275 16,1 km/h (3 Bft)
03.02.2016 21:15 1,2 C 87 % 1022,0 hPa 0,2 mm W 260 16,1 km/h (3 Bft)
03.02.2016 21:20 1,2 C 87 % 1022,0 hPa 0,2 mm W-SW 257 17,7 km/h (3 Bft)
03.02.2016 21:25 1,2 C 87 % 1022,1 hPa 0,2 mm W 276 24,1 km/h (4 Bft)
03.02.2016 21:30 1,1 C 87 % 1022,3 hPa 0,0 mm W-SW 249 30,6 km/h (5 Bft)
03.02.2016 21:35 1,1 C 87 % 1022,7 hPa 0,2 mm W-SW 241 25,7 km/h (4 Bft)
03.02.2016 21:40 1,2 C 87 % 1023,0 hPa 0,0 mm W 276 24,1 km/h (4 Bft)
03.02.2016 21:45 1,1 C 87 % 1023,3 hPa 0,2 mm W-SW 249 25,7 km/h (4 Bft)
03.02.2016 21:50 1,2 C 87 % 1023,5 hPa 0,0 mm W-SW 248 27,4 km/h (4 Bft)
03.02.2016 21:55 1,2 C 87 % 1023,5 hPa 0,0 mm W-SW 248 24,1 km/h (4 Bft)
03.02.2016 22:00 1,2 C 87 % 1023,3 hPa 0,0 mm W 261 19,3 km/h (3 Bft)
03.02.2016 22:05 1,2 C 87 % 1023,6 hPa 0,0 mm W 270 24,1 km/h (4 Bft)
03.02.2016 22:10 1,1 C 87 % 1023,9 hPa 0,0 mm W 262 20,9 km/h (4 Bft)
03.02.2016 22:15 1,1 C 87 % 1024,0 hPa 0,0 mm W-SW 254 22,5 km/h (4 Bft)
03.02.2016 22:20 1,1 C 87 % 1024,3 hPa 0,0 mm W-SW 257 17,7 km/h (3 Bft)
03.02.2016 22:25 1,1 C 87 % 1024,3 hPa 0,0 mm W 261 16,1 km/h (3 Bft)
03.02.2016 22:30 1,1 C 88 % 1024,5 hPa 0,0 mm SW 229 19,3 km/h (3 Bft)
03.02.2016 22:35 1,1 C 88 % 1024,5 hPa 0,0 mm W 260 16,1 km/h (3 Bft)
03.02.2016 22:40 1,1 C 88 % 1024,6 hPa 0,0 mm W 261 17,7 km/h (3 Bft)
03.02.2016 22:45 1,2 C 88 % 1024,9 hPa 0,0 mm W-SW 253 17,7 km/h (3 Bft)
03.02.2016 22:50 1,1 C 88 % 1025,1 hPa 0,0 mm W 279 17,7 km/h (3 Bft)
03.02.2016 22:55 1,1 C 88 % 1025,5 hPa 0,0 mm W-SW 243 16,1 km/h (3 Bft)
03.02.2016 23:00 1,1 C 88 % 1025,6 hPa 0,0 mm W-NW 295 20,9 km/h (4 Bft)
03.02.2016 23:05 1,1 C 88 % 1025,5 hPa 0,0 mm W 275 24,1 km/h (4 Bft)
03.02.2016 23:10 1,1 C 88 % 1025,4 hPa 0,0 mm W 270 22,5 km/h (4 Bft)
03.02.2016 23:15 1,1 C 88 % 1025,4 hPa 0,0 mm W 273 12,9 km/h (3 Bft)
03.02.2016 23:20 1,1 C 88 % 1025,4 hPa 0,0 mm W 280 16,1 km/h (3 Bft)
03.02.2016 23:25 1,1 C 89 % 1025,5 hPa 0,0 mm W 274 24,1 km/h (4 Bft)
03.02.2016 23:30 1,1 C 89 % 1025,4 hPa 0,0 mm W 269 14,5 km/h (3 Bft)
03.02.2016 23:35 1,1 C 89 % 1025,4 hPa 0,0 mm W 272 16,1 km/h (3 Bft)
03.02.2016 23:40 1,1 C 89 % 1025,3 hPa 0,0 mm W 263 12,9 km/h (3 Bft)
03.02.2016 23:45 1,1 C 89 % 1025,2 hPa 0,0 mm W 271 11,3 km/h (2 Bft)
03.02.2016 23:50 1,1 C 89 % 1025,3 hPa 0,0 mm W-SW 254 12,9 km/h (3 Bft)
03.02.2016 23:55 1,1 C 89 % 1025,4 hPa 0,0 mm W 267 14,5 km/h (3 Bft)
_ Min-Zeit 21:25 04:55 08:45 - - - 00:30
Minimum _ 1,1 C 78 % 1017,5 hPa - - - 0,0 km/h (0 Bft)
_ Max-Zeit 04:55 10:40 23:00 19:30 - - 21:30
Maximum _ 7,9 C 89 % 1025,6 hPa 0,4 mm - - 30,6 km/h
W (5 Bft)
Durchschnitt _ 3,7 C 86 % 1019,4 hPa #11,6 mm W - 7,6 km/h (2 Bft)